User: anonymous
Location: Columbia
(38.9520°N, 92.3340°W)
Time: 12:34:08
(UTC-05:00)
Language:

Meteor 1-4 Rocket - Orbit

View from above orbital plane
View from above orbital plane
View from above satellite
View from above satellite

Ground track
Ground track

The orbit data is extracted from the following two-line orbital elements,

1 04394U 70037B   14211.43459421  .00003621  00000-0  15880-3 0  6341
2 04394 081.2470 165.8050 0049875 104.3791 256.2984 15.20540141404284
Epoch (UTC): 30 July 2014 10:25:48
Eccentricity: 0.0049875
inclination: 81.2470°
perigee height: 470 km
apogee height: 538 km
right ascension of ascending node: 165.8050°
argument of perigee: 104.3791°
revolutions per day: 15.20540141
mean anomaly at epoch: 256.2984°
orbit number at epoch: 40428

The dashed part of the orbit path shows where the satellite is in the earth's shadow,  

DLR